COSMOS 1275 DEB, 17632

Orbit data source: Space-Track

COSMOS 1275 DEB, 17632 is space debris in LEO originally from a launch on Thu, 04 Jun 1981 UTC launched from the Plesetsk Missile And Space Complex (PKMTR). Debris objects in space refer to the collection of defunct objects orbiting the Earth. Examples of debris include non-operational satellites, rocket bodies, and fragments generated from explosions, collisions, or faulty payload assembly.

Loading next visibility...
Identifier
17632, 1981-053LB
Orbit
LEO
Country
Flag of CISCIS
Related business
Manufacturer
Unknown
Mission
Spacecraft
Bus & Motor
Unknown
Mass
Unknown
Launch date (UTC)
1981-06-04 (45 years ago)
Launch vehicle
Unknown
Launch site
Plesetsk Missile And Space Complex (PKMTR)
Object type
Payload
Rocket body
Debris
Shape & HBR
Unknown shape, 0.1 m
Radar Cross Section
Small (<0.1 m²)

Expand to show TLE details & history
Last TLE update: 10 hours ago

TLE from 10 hours ago
0 COSMOS 1275 DEB
1 17632U 81053LB  26105.14953870  .00000565  00000-0  65555-3 0  9992
2 17632  83.0827 250.9362 0141476  46.3171 132.3957 13.63013496 27095
Epoch: 2026-04-15T03:35Z
TLE epoch observation values (Epoch: 2026-04-15T03:35:20.143Z)
Latitude
-0.01031°
Longitude
173.78794°
Altitude
1,099.076 km
Speed
7.267 km/s
True Right ascension
04h 43m 44s
True Declination
0° 00' 37"
Sunlit
Object was in daylight at epoch
Visualization orbit readout
Latitude
Unknown
Longitude
Unknown
Altitude
Unknown
Speed
Unknown
Apparent Right ascension
Unknown
Apparent Declination
Unknown
Sunlit
N/A
Visualization observer readout
Local Sidereal Time
20:01:04
Azimuth
Unknown
Elevation
Unknown
Doppler factor
Unknown
Orbital elements
Apogee altitude
1,126.613 km
Perigee altitude
917.227 km
Semi-major axis
7,400.057 km
Eccentricity
0.01415
Inclination
83.0827°
RAAN
250.9362°
Arg. of periapsis
46.3171°
True anomaly
133.57876°
Mean anomaly
132.3957°
Eccentric anomaly
132.98864°
Mean motion
3.4095 °/min
Orbital period
105.59 mins
BSTAR
0.00065555
Loading maneuver chart data...
Computing Atmospheric mass density...
Loading historical data...
Loading historical data...
Loading historical data...
Loading historical data...
Loading historical data...
Loading historical data...
Loading historical data...

Documentation

Showing up to 5 results
|